Regional Weather Roundup
Issued by NWS

Home | Current Version | Previous Version | Graphics & Text | Print | Product List | Glossary On
Versions: 1 2 3 4 5 6 7 8 9 10 11 12 13 14 15 16 17 18 19 20 21 22 23 24 25 26 27 28 29 30 31 32 33 34 35 36 37 38 39 40 41 42 43 44 45 46 47 48 49 50
144
ASUS45 KBOU 161907
RWRCO

WEATHER ROUNDUP FOR COLORADO
NATIONAL WEATHER SERVICE DENVER/BOULDER CO
100 PM MDT WED AUG 16 2017

NOTE: "FAIR" INDICATES FEW OR NO CLOUDS BELOW 12000 FEET WITH NO
SIGNIFICANT WEATHER AND/OR OBSTRUCTIONS TO VISIBILITY.

COZ001>005-013-030-031-162000-
...NORTHWEST COLORADO...

CITY           SKY/WX    TMP DP  RH WIND       PRES   REMARKS
CRAIG          FAIR      73  41  31 CALM      30.20F
HAYDEN         FAIR      70  40  33 NW12G17   30.24F
MEEKER         FAIR      71  42  35 SW6       30.21F
RABBIT EARS PA FAIR      52  39  62 W7G18     30.44S
STEAMBOAT SPGS FAIR      67  42  40 SW6       30.23F
WALDEN         PTSUNNY   55  39  54 CALM      30.31R
$$

COZ006>008-011-162000-
...WEST CENTRAL VALLEYS...

CITY           SKY/WX    TMP DP  RH WIND       PRES   REMARKS
GRAND JUNCTION FAIR      82  38  20 NW7       30.10F
MONTROSE       FAIR      77  33  20 N7        30.16F
EAGLE          PTSUNNY   74  37  26 SW13G18   30.20F
RIFLE          PTSUNNY   79  35  20 NW7       30.13F
DELTA          FAIR      82  36  19 E3        30.13F
NUCLA          FAIR      77  28  16 N5        30.21F
$$

COZ017>023-064>068-162000-
...SOUTHWEST COLORADO...

CITY           SKY/WX    TMP DP  RH WIND       PRES   REMARKS
DURANGO        FAIR      77  27  15 SW16G25   30.21F
CORTEZ         FAIR      80  29  15 S9G16     30.18F
PAGOSA SPRINGS FAIR      72  25  17 SE5G18    30.28F
TELLURIDE      NOT AVBL
WOLF CREEK PAS FAIR      52  34  50 SW10      30.58S
$$

COZ009-010-012-014-032>034-037-058>063-162000-
...CENTRAL COLORADO...

CITY           SKY/WX    TMP DP  RH WIND       PRES   REMARKS
ASPEN          FAIR      69  36  29 VRB3G17   30.26S
BUENA VISTA    PTSUNNY   69  31  24 SW9       30.25S
COPPER MTN     PTSUNNY   54  30  40 W16G24    30.52S
BERTHOUD PASS  CLOUDY    41  36  81 NW26G32   30.53R
COTTONWOOD PAS FAIR      64  30  27 NW3       30.38S
GUNNISON       FAIR      68  35  29 VRB3      30.26F
KREMMLING      PTSUNNY   73  36  25 W6        30.24F
LEADVILLE      PTSUNNY   57  30  35 NW9       30.38S
SALIDA         CLOUDY    74  35  24 N6        30.29F
SUNLIGHT       PTSUNNY   54  34  47 SW5       30.50S
WILKERSON PASS CLOUDY    52  28  40 W3        30.50R
$$

COZ069>075-162000-
...SAN LUIS VALLEY/SANGRE DE CRISTO MOUNTAINS...

CITY           SKY/WX    TMP DP  RH WIND       PRES   REMARKS
ALAMOSA        FAIR      73  34  23 W5        30.24F
DEL NORTE      PTSUNNY   71  32  23 SW8       30.26F
LA VETA PASS   NOT AVBL
SAGUACHE       FAIR      72  32  23 NW8       30.27S
$$

COZ035-036-038>040-162000-
...NORTHERN COLORADO FRONT RANGE...

CITY           SKY/WX    TMP DP  RH WIND       PRES   REMARKS
DENVER INTL AP FAIR      72  46  39 NE12      30.14F
DMNS CITY PARK   N/A     71  44  37 E5G18     30.13F
AURORA         MOSUNNY   71  49  44 NE8G18    30.16S
FRONT RANGE AP FAIR      70  48  46 CALM      30.16S
ERIE MUNI ARPT FAIR      72  44  36 NE9       30.17F
BOULDER MUN AP FAIR      72  46  40 E7        30.13S THUNDER
CENTENNIAL     PTSUNNY   70  47  43 VRB6      30.16S
BROOMFIELD     PTSUNNY   72  46  40 CALM      30.15F
FORT COLLINS   FAIR      71  50  47 VRB3      30.12F
LONGMONT       FAIR      76  48  36 E7        30.14S HAZE
$$

COZ041-046-047-076>085-087-088-162000-
...PIKES PEAK/PALMER DIVIDE AND SOUTHERN FOOTHILLS...

CITY           SKY/WX    TMP DP  RH WIND       PRES   REMARKS
COLO. SPRINGS  FAIR      71  49  45 S8        30.19S
A. F. ACADEMY  PTSUNNY   65  51  60 SE7       30.19S
SCHRIEVER AFB  PTSUNNY   68  46  44 SW9       30.18F
CHEYENNE MTN   LGT RAIN  62  49  62 S3        30.18R
ELLICOTT       FAIR     N/A N/A N/A CALM      30.17F
FALCON         LGT RAIN  64  47  54 N3        30.24R
FORT CARSON    LGT RAIN  68  52  56 SE3       30.16S
LIMON          FAIR      69  50  50 NW15G24   30.14F
MONUMENT HILL  FAIR      63  46  55 E8        30.24F
CANON CITY     SUNNY     75  52  43 NE9       30.11F
WALSENBURG     FAIR      79  46  31 E3        30.15F
TRINIDAD       FAIR      75  48  38 E7        30.15F
$$

COZ042>045-048>051-090-091-162000-
...NORTHEAST COLORADO...

CITY           SKY/WX    TMP DP  RH WIND       PRES   REMARKS
GREELEY ARPT   FAIR      74  49  41 VRB3      30.11F
AKRON          FAIR      71  48  43 NW18G25   30.09S
BURLINGTON     FAIR      74  57  55 NW12G20   30.06F
WRAY           NOT AVBL
YUMA           FAIR      70  37  30 NW14      30.05S
STERLING       FAIR      72  50  46 N9G21     30.06S
HOLYOKE        FAIR      73  59  60 N16G22    30.04R
FORT MORGAN    FAIR      75  42  30 NW14G21   30.10F
$$

COZ086-089-092>099-162000-
...SOUTHEAST COLORADO...

CITY           SKY/WX    TMP DP  RH WIND       PRES   REMARKS
PUEBLO         FAIR      80  49  33 E9G21     30.08F
LA JUNTA       FAIR      80  51  36 NE6       30.09F
LAMAR          FAIR      81  53  37 N12       30.02F
SPRINGFIELD      N/A     79  52  38 NW9       30.07S
$$




USA.gov is the U.S. government's official web portal to all federal, state and local government web resources and services.